Weather History for Frankfort, KY

Change the Weather History Date:

Tuesday, March 12, 2013

  Actual Average Record
Temperature  
Mean Temperature 42 °F 44 °F  
Max Temperature 48 °F 54 °F 78 °F (1990)
Min Temperature 35 °F 33 °F 10 °F (1998)
Degree Days  
Heating Degree Days 23 22  
Month to date heating degree days 323 280  
Since 1 July heating degree days 3861 3919  
Cooling Degree Days 0 0  
Month to date cooling degree days 0 0  
Year to date cooling degree days 0 0  
Moisture  
Dew Point 28 °F    
Average Humidity 67    
Maximum Humidity 85    
Minimum Humidity 49    
Precipitation  
Precipitation 0.00 in 0.14 in 1.43 in (1917)
Month to date precipitation 1.46 1.51  
Year to date precipitation 8.10 8.06  
Sea Level Pressure  
Sea Level Pressure 30.01 in    
Wind  
Wind Speed 7 mph (WSW)    
Max Wind Speed 17 mph    
Max Gust Speed 28 mph    
Visibility 10 miles    
Events      
T = Trace of Precipitation, MM = Missing Value Source: NWS Daily Summary

Daily Weather History Graph

Daily Weather History Graph

Search for Another Location

Airport:

Trip Planner

Search our weather history database for the weather conditions in past years. The results will help you decide how hot, cold, wet, or windy it might be!

Date:

Astronomy

Mar. 12, 2013 Rise Set
Actual Time 7:54 AM EDT 7:44 PM EDT
Civil Twilight 7:28 AM EDT 8:10 PM EDT
Nautical Twilight 6:58 AM EDT 8:41 PM EDT
Astronomical Twilight 6:27 AM EDT 9:11 PM EDT
Moon 8:02 AM EDT (3/12) 8:56 PM EDT (3/12)
Length of Visible Light 12h 41m
Length of Day
11h 49m
New Moon, 1% of the Moon is Illuminated
Mar 12
New Moon
Mar 19
First Quarter
Mar 27
Full
Apr 3
Last Quarter
Apr 10
New

Hourly Weather History & Observations

Time (EDT) Temp. Windchill Dew Point Humidity Pressure Visibility Wind Dir Wind Speed Gust Speed Precip Events Conditions
12:53 AM 37.9 °F 32.1 °F 33.1 °F 83% 29.91 in 10.0 mi West 8.1 mph - N/A   Overcast
1:53 AM 37.0 °F 33.3 °F 30.9 °F 79% 29.92 in 10.0 mi Variable 4.6 mph - N/A   Overcast
2:53 AM 36.0 °F 29.0 °F 30.0 °F 79% 29.94 in 10.0 mi West 9.2 mph - N/A   Overcast
3:53 AM 36.0 °F 30.3 °F 30.0 °F 79% 29.95 in 10.0 mi West 6.9 mph - N/A   Overcast
4:53 AM 36.0 °F 29.6 °F 28.0 °F 73% 29.94 in 10.0 mi WNW 8.1 mph - N/A   Overcast
5:53 AM 35.1 °F 28.6 °F 28.0 °F 76% 29.97 in 10.0 mi WNW 8.1 mph - N/A   Overcast
6:53 AM 35.1 °F - 28.9 °F 78% 29.98 in 10.0 mi Calm Calm - N/A   Overcast
7:53 AM 35.1 °F 32.2 °F 30.0 °F 82% 30.00 in 10.0 mi West 3.5 mph - N/A   Overcast
8:53 AM 35.1 °F 32.2 °F 28.0 °F 76% 30.02 in 10.0 mi West 3.5 mph - N/A   Overcast
9:50 AM 35.6 °F 29.9 °F 28.4 °F 75% 30.02 in 10.0 mi West 6.9 mph - N/A   Overcast
9:53 AM 35.1 °F 30.1 °F 28.0 °F 76% 30.04 in 10.0 mi West 5.8 mph - N/A   Overcast
10:53 AM 36.0 °F 30.3 °F 28.0 °F 73% 30.05 in 10.0 mi West 6.9 mph - N/A   Overcast
11:53 AM 37.9 °F 30.5 °F 28.9 °F 70% 30.04 in 10.0 mi SW 11.5 mph - N/A   Mostly Cloudy
12:04 PM 37.4 °F 30.8 °F 28.4 °F 70% 30.04 in 10.0 mi WSW 9.2 mph - N/A   Overcast
12:50 PM 39.2 °F 35.0 °F 28.4 °F 65% 30.04 in 10.0 mi West 5.8 mph - N/A   Scattered Clouds
12:53 PM 39.9 °F 33.9 °F 28.0 °F 63% 30.05 in 10.0 mi WSW 9.2 mph - N/A   Scattered Clouds
1:53 PM 43.0 °F 38.8 °F 28.9 °F 58% 30.04 in 10.0 mi West 6.9 mph 16.1 mph N/A   Scattered Clouds
2:53 PM 45.0 °F 39.7 °F 28.9 °F 53% 30.02 in 3.0 mi WSW 10.4 mph 17.3 mph N/A   Haze
3:53 PM 46.0 °F 40.6 °F 28.9 °F 51% 30.01 in 10.0 mi WSW 11.5 mph 16.1 mph N/A   Mostly Cloudy
4:53 PM 46.0 °F 39.6 °F 28.0 °F 50% 30.01 in 10.0 mi WSW 15.0 mph - N/A   Mostly Cloudy
5:53 PM 46.0 °F 43.9 °F 28.0 °F 50% 30.01 in 10.0 mi WSW 4.6 mph 23.0 mph N/A   Mostly Cloudy
6:53 PM 45.0 °F 40.1 °F 27.0 °F 49% 30.01 in 10.0 mi WSW 9.2 mph 17.3 mph N/A   Partly Cloudy
7:53 PM 44.1 °F 40.1 °F 27.0 °F 51% 30.02 in 10.0 mi WSW 6.9 mph - N/A   Clear
8:53 PM 42.1 °F 37.7 °F 27.0 °F 55% 30.04 in 10.0 mi WSW 6.9 mph - N/A   Clear
9:53 PM 41.0 °F 37.1 °F 27.0 °F 57% 30.06 in 10.0 mi West 5.8 mph - N/A   Partly Cloudy
10:53 PM 37.9 °F 35.5 °F 25.0 °F 60% 30.07 in 10.0 mi WSW 3.5 mph - N/A   Clear
11:53 PM 36.0 °F 33.3 °F 27.0 °F 70% 30.08 in 10.0 mi SW 3.5 mph - N/A   Overcast